Retour au catalogue

STARLINK-4667

ActifCommunicationsVLEO
NORAD 53707·PAYLOAD·🇺🇸 United States

Lancé Sep 5, 2022 depuis Cape Canaveral Space Force Station

Loading…

Prochains Passages (prochaines 24 heures)

TLE

FraisSource: CelesTrak SupGP

Époque: Sep 14, 2026, 22:04 UTC

1 53707C 22107H   26257.91993056  .00032371  00000+0  95669-3 0  2578
2 53707  53.1588  87.4607 0001238  83.7036  14.1775 15.34365259    16

Suivez STARLINK-4667 en temps réel avec AllMySat

Download on the App Store